Temperature
23 23 22 22 21 21 20 20 20 20 20 20 20 20 20 20 20 19 19 19 19 20 20 20 20 20 21 21 20 20 20 20 20 20 20 20 20 19 19 19 18 18 18
23 24 22 22 21 21 20 20 20 20 20 20 20 20 19 19 19 19 19 19 19 19 20 20 20 20 20 21 21 21 20 20 20 20 20 20 20 19 19 18 18 19 19
24 24 23 22 22 21 20 20 20 20 20 20 20 19 19 19 19 19 19 19 19 19 19 19 20 20 20 20 20 21 21 21 20 20 20 19 19 19 19 19 19 19 19
23 24 23 22 22 21 20 20 20 19 19 19 19 19 19 19 19 19 19 19 19 19 19 19 19 19 19 20 20 20 20 20 20 20 19 18 19 19 19 19 19 19 19
22 23 23 22 22 21 20 20 19 19 19 19 19 19 19 19 19 19 19 19 19 19 19 19 19 19 19 19 19 20 20 20 20 20 19 19 18 18 19 19 19 19 19
21 22 23 22 22 21 20 20 19 19 19 19 19 19 19 19 19 19 19 19 19 19 19 19 19 19 19 19 19 19 19 19 20 20 19 19 19 19 19 19 19 19 19
21 21 23 22 22 21 20 19 19 19 19 19 19 19 19 19 19 19 19 19 19 19 19 19 19 19 19 19 19 19 19 19 19 19 18 18 18 18 19 19 18 19 19
21 20 22 22 21 21 20 20 19 19 19 19 19 19 19 19 19 19 19 19 19 19 19 19 19 19 19 19 19 19 19 19 18 18 18 18 18 18 18 18 18 18 18
21 21 22 22 21 21 20 20 20 19 19 19 19 19 19 19 19 19 19 19 19 19 19 18 18 18 19 19 19 19 19 19 19 19 18 18 18 18 18 18 18 18 18
22 21 21 22 22 21 21 21 20 20 20 20 20 20 20 19 19 19 19 19 19 19 19 18 18 19 19 19 19 19 19 19 19 19 19 19 18 18 18 18 18 18 18
21 20 20 21 21 21 21 21 20 20 20 20 20 20 19 19 19 19 19 18 18 18 18 19 19 18 19 19 19 18 18 19 19 18 19 19 19 19 19 18 18 18 18
22 21 20 20 20 20 19 20 20 20 20 20 19 19 19 19 19 18 18 18 19 19 19 19 19 18 19 19 19 18 18 19 18 18 19 19 19 19 19 18 18 19 19
22 21 21 20 20 20 20 19 19 19 19 19 19 19 19 18 18 18 18 19 19 19 19 19 18 18 19 18 18 18 19 19 19 19 19 19 19 19 19 19 19 19 19
22 21 21 20 20 20 20 19 19 19 19 19 18 18 18 18 18 19 19 19 19 19 19 19 18 18 18 18 18 19 19 19 19 19 19 19 18 19 19 19 19 19 18
22 21 21 20 19 19 19 19 19 19 19 19 19 19 19 19 19 19 19 19 19 19 19 19 19 19 18 18 19 19 19 19 19 18 19 19 19 19 19 19 19 19 19
21 21 21 20 19 20 20 19 19 19 19 19 19 19 19 19 19 19 19 18 18 19 19 19 19 19 19 19 19 19 19 19 19 19 19 19 19 19 19 19 19 19 19
21 21 20 20 19 19 20 20 19 19 18 19 19 19 19 19 19 19 19 19 19 18 18 19 18 18 19 19 19 19 19 19 19 19 19 18 19 19 19 19 19 19 19
21 20 20 20 19 19 19 19 19 19 19 19 19 19 19 19 19 19 19 19 19 19 19 19 18 18 19 19 19 19 19 19 19 19 19 19 19 19 19 19 19 19 19
20 20 20 20 20 19 19 19 19 19 19 19 19 19 19 19 19 18 18 18 19 19 19 19 19 19 19 19 19 19 19 19 19 19 19 19 18 18 19 19 19 19 19
19 19 19 19 19 19 18 18 18 19 19 19 19 19 19 19 19 18 18 18 18 19 19 19 19 19 19 19 18 18 19 19 19 19 19 19 19 19 19 19 19 19 19
19 19 19 18 18 18 18 18 18 18 18 18 18 18 18 18 18 18 18 18 18 18 18 19 19 19 19 19 18 18 18 19 19 19 19 19 19 19 19 19 19 19 19
20 19 19 19 18 18 18 18 18 18 18 19 19 19 19 19 18 18 18 18 18 18 18 18 18 18 18 18 18 18 18 18 19 20 20 20 19 19 19 19 19 19 19
20 20 19 19 18 18 18 17 17 17 17 18 18 18 18 19 19 19 18 18 18 17 17 17 17 17 17 17 17 17 17 18 19 20 20 20 19 19 19 19 19 19 19
21 20 19 19 18 17 17 16 16 16 16 16 16 17 17 17 17 18 18 17 17 17 17 16 16 16 16 16 16 16 16 17 17 17 18 19 19 18 18 18 18 18 18
20 20 19 18 18 17 16 16 16 16 16 16 16 16 16 16 17 17 17 16 16 16 16 16 16 15 15 15 15 15 16 16 16 16 16 17 17 17 17 17 18 18 17
20 19 19 18 17 17 16 16 16 15 15 15 16 16 15 15 16 16 16 15 15 15 15 15 15 15 15 15 15 15 15 16 16 16 15 16 16 17 17 17 17 17 17
Wind_Speed
19 21 23 19 16 17 18 16 15 15 16 15 14 13 11 10 10 10 9 9 10 10 11 11 11 11 11 12 12 11 11 11 11 11 10 9 7 6 6 6 3 11 11
22 22 23 19 17 17 17 16 15 15 15 15 14 12 11 9 8 8 8 8 8 8 9 9 9 9 9 9 9 8 8 7 6 6 6 7 6 5 5 6 7 12 11
23 23 22 19 17 16 16 16 15 15 15 15 13 12 10 8 7 6 6 6 7 7 7 7 7 7 7 7 7 7 6 4 3 4 6 8 9 7 4 5 9 10 8
22 21 21 20 18 16 15 15 15 15 14 14 13 11 9 8 7 7 7 6 6 6 5 5 5 5 5 5 4 5 5 5 4 7 10 12 12 12 8 5 6 6 6
19 19 21 19 18 17 16 15 15 14 13 13 13 11 10 8 7 7 7 6 6 5 5 4 4 4 4 5 4 4 5 5 7 10 14 7 13 16 12 9 7 6 6
19 19 21 18 17 17 16 15 15 14 13 12 11 11 10 10 8 8 7 6 5 5 4 4 5 5 5 5 5 6 6 7 9 12 15 8 12 17 15 12 10 10 9
19 20 20 18 17 16 16 14 14 13 12 11 10 10 10 10 10 10 9 8 6 5 5 6 6 6 6 5 6 7 8 9 12 14 13 6 9 19 16 14 11 10 10
19 19 18 18 16 16 16 15 14 13 12 11 10 10 9 8 9 9 9 9 9 8 7 6 6 7 7 7 8 8 10 11 13 15 14 11 15 20 18 16 14 12 12
19 19 16 17 16 15 15 15 14 13 12 12 12 11 11 11 11 11 11 11 10 9 9 9 9 9 10 10 11 11 12 13 14 15 15 8 20 22 19 18 16 14 13
17 19 16 17 16 15 15 15 15 14 14 13 13 12 12 13 13 14 15 15 13 12 12 12 12 13 13 14 15 15 15 14 15 17 16 11 22 21 18 17 16 15 14
16 17 17 17 16 16 16 17 15 14 14 13 13 14 13 13 16 17 19 19 18 16 15 15 15 16 17 18 20 20 17 14 16 16 14 12 21 21 18 17 17 16 15
16 16 15 16 14 13 14 16 15 15 15 15 15 16 15 15 15 15 18 22 21 21 19 19 19 19 18 16 19 24 15 16 16 14 7 16 20 20 19 18 18 17 17
13 13 13 13 13 11 7 12 11 12 14 17 18 17 16 14 13 12 10 16 18 19 16 16 18 16 15 14 10 11 15 14 12 12 7 17 19 19 18 18 17 17 18
12 14 14 11 12 9 7 7 8 8 7 9 14 15 12 6 6 6 5 8 12 13 12 10 8 13 14 14 9 6 9 10 10 8 6 14 18 19 18 18 18 18 19
11 12 12 11 9 7 5 5 7 6 6 9 10 13 13 7 8 9 4 5 6 7 7 6 6 4 5 6 6 5 5 7 9 12 8 15 19 20 19 19 19 20 21
12 9 9 12 10 8 7 6 5 5 6 8 8 13 17 12 8 8 6 6 5 7 6 5 8 7 7 6 6 7 7 9 8 9 10 11 16 19 21 21 22 22 22
12 11 8 11 12 11 11 10 9 9 10 8 8 13 16 16 10 8 6 6 6 7 6 4 4 4 5 6 7 9 9 6 6 7 8 9 12 18 24 25 25 25 24
9 9 9 11 12 12 10 9 11 10 10 9 9 10 12 14 12 7 7 7 6 5 3 3 3 4 5 6 7 7 6 4 6 6 8 11 14 15 19 26 26 27 26
5 5 6 7 7 8 10 10 11 9 10 7 7 6 9 13 13 7 8 7 6 5 5 6 6 5 6 7 7 6 6 5 6 9 8 9 11 14 15 19 29 30 28
6 5 5 6 6 6 6 6 8 10 10 8 8 5 8 8 10 7 8 9 7 7 7 7 7 6 6 6 8 8 6 6 7 9 11 9 9 13 15 13 17 23 28
5 4 4 5 4 3 5 7 8 7 7 8 9 8 8 8 7 6 8 6 7 7 8 8 8 8 7 5 4 6 9 11 10 9 9 9 10 9 10 10 9 13 16
6 7 7 7 6 4 4 5 6 8 7 6 6 6 7 7 7 8 8 7 7 7 9 9 8 7 6 6 5 5 5 6 8 9 8 9 9 7 7 6 7 8 9
6 6 6 5 4 5 6 6 8 7 7 8 9 9 10 9 9 9 9 8 7 8 9 9 9 10 8 6 6 6 5 4 3 4 3 2 2 3 5 5 5 5 7
5 6 5 4 5 6 7 9 11 10 11 11 9 9 9 10 10 9 9 8 8 7 7 7 7 6 6 5 4 6 7 3 1 3 4 4 5 5 6 5 6 5 7
5 5 5 6 5 6 7 9 10 12 12 11 11 11 10 8 7 8 8 8 7 6 5 4 3 2 2 2 4 4 4 2 3 3 4 4 4 4 4 4 4 4 5
4 5 5 7 8 7 6 7 8 11 13 14 14 12 9 6 6 8 8 7 7 6 7 6 5 5 4 5 5 4 4 2 1 2 3 3 4 4 5 3 2 3 3
Wind_Direction
126 136 134 133 131 138 144 143 142 138 132 128 127 125 122 117 113 106 98 94 96 98 98 98 98 94 89 84 76 70 68 69 70 74 80 84 81 75 73 73 106 104 99
128 132 132 133 133 139 149 149 146 143 139 138 138 135 131 123 116 112 107 102 99 99 99 100 104 105 103 101 100 96 89 86 92 106 121 126 116 94 67 36 56 115 118
127 133 135 137 136 138 145 152 152 151 147 145 144 140 136 131 127 126 122 117 113 110 109 107 106 108 111 115 120 123 123 126 148 185 195 178 152 142 122 91 94 112 123
129 138 140 141 138 136 138 147 153 154 151 148 144 140 140 144 147 149 147 139 131 126 126 129 125 123 128 136 147 151 156 171 214 239 233 218 172 157 153 140 127 134 148
130 137 137 144 140 139 141 145 150 153 152 151 148 147 151 157 162 160 157 155 151 147 144 146 150 158 166 172 185 195 199 209 232 253 262 234 149 154 158 164 170 176 181
133 136 140 147 144 144 145 146 149 153 156 157 157 158 165 171 173 171 170 172 175 180 180 179 183 189 196 202 209 217 227 237 248 251 254 230 145 161 165 174 191 198 202
139 134 144 149 149 149 151 153 156 159 161 164 168 173 181 187 186 186 186 190 193 202 212 202 197 208 211 218 227 237 245 250 256 266 267 250 166 166 171 182 200 210 210
135 132 143 149 153 155 158 161 166 168 168 172 178 184 187 189 193 195 198 201 203 205 209 205 212 222 225 229 233 241 249 257 259 260 253 214 180 172 177 186 200 215 227
135 132 146 150 157 161 164 166 170 173 176 182 189 194 199 203 207 208 211 214 214 208 210 216 224 233 239 240 240 241 244 250 267 277 274 215 171 178 185 190 199 214 232
140 141 151 155 159 166 169 172 176 180 184 189 195 201 208 215 219 219 217 218 219 215 216 220 226 235 241 245 245 241 242 248 253 260 262 231 177 182 190 196 204 215 230
149 150 159 159 162 171 176 176 181 189 195 199 205 213 218 225 226 222 223 219 216 217 219 222 227 234 239 245 246 244 240 241 250 249 249 215 178 181 192 200 208 219 230
153 158 166 165 165 181 187 171 185 193 197 206 214 210 215 228 239 233 217 217 217 217 218 222 227 233 238 246 247 237 235 238 251 262 247 169 178 186 196 205 211 220 231
163 167 170 167 163 185 197 170 190 201 197 201 218 215 214 227 239 241 214 206 213 215 220 228 229 235 237 239 245 211 216 237 244 252 203 174 188 195 202 212 218 223 231
180 178 178 172 169 190 199 192 190 201 200 203 205 213 220 221 245 238 213 201 205 213 211 219 213 222 232 243 244 227 216 226 253 270 213 200 206 207 210 217 224 229 234
186 185 169 164 167 184 226 245 213 208 206 203 206 210 222 220 229 234 219 215 233 230 195 206 224 229 251 258 259 266 268 254 232 242 227 208 213 217 220 224 227 231 235
182 202 182 174 176 188 209 232 248 237 225 240 226 214 214 219 222 224 217 210 220 243 239 212 208 211 220 230 242 247 247 250 234 223 235 235 228 227 228 229 230 232 234
180 204 198 185 188 199 214 221 231 235 239 233 235 225 211 214 217 213 218 220 222 238 248 257 251 240 235 236 236 239 237 234 251 246 242 251 252 238 230 228 230 232 234
194 202 199 206 201 201 214 222 231 235 236 238 235 229 220 223 221 214 223 225 219 227 230 241 254 269 268 263 255 243 232 219 238 246 243 236 240 247 235 225 226 230 233
225 221 208 232 233 215 220 229 239 245 249 253 248 235 224 220 221 211 224 227 218 225 228 236 231 230 246 255 261 254 236 220 230 247 246 247 249 245 245 224 221 225 228
233 233 241 255 280 308 299 276 259 259 260 262 266 273 262 239 226 220 226 221 219 229 226 220 223 226 233 240 261 273 273 247 228 230 237 242 249 253 251 240 220 225 227
225 233 249 267 288 311 308 306 297 288 280 271 268 270 275 274 264 247 253 248 231 238 242 233 226 225 225 212 232 263 261 250 241 232 227 230 238 246 245 241 222 214 223
216 214 222 237 260 274 279 288 284 284 283 283 277 270 261 258 258 253 248 253 249 249 251 247 240 236 227 208 207 238 255 247 244 240 220 217 227 240 248 245 244 234 233
239 242 256 252 261 274 274 276 275 271 266 262 257 252 247 241 236 234 241 246 250 247 247 243 238 237 235 233 223 231 246 245 349 334 330 230 229 274 270 259 264 276 276
331 331 327 297 250 244 249 257 263 269 271 271 267 259 248 238 235 231 233 237 245 248 247 249 243 241 241 250 265 255 259 288 328 331 331 339 6 346 328 323 314 309 286
298 305 311 299 279 261 251 252 259 265 268 272 273 267 258 247 227 225 223 225 225 229 231 228 228 227 228 250 265 273 268 259 204 227 279 310 322 301 295 302 287 298 309
285 296 305 313 304 290 272 267 267 272 274 276 276 275 271 247 217 212 215 218 219 222 220 214 210 215 212 231 252 269 277 274 232 224 256 284 291 293 292 274 276 282 310
Height
1512 1515 1518 1521 1524 1527 1529 1531 1534 1536 1538 1540 1542 1544 1545 1547 1548 1549 1550 1551 1552 1553 1554 1554 1555 1556 1557 1558 1559 1559 1560 1561 1561 1561 1562 1562 1562 1561 1562 1562 1562 1563 1563
1511 1515 1519 1522 1525 1528 1530 1533 1535 1538 1540 1542 1544 1545 1547 1549 1550 1551 1552 1553 1554 1555 1555 1556 1557 1558 1558 1559 1560 1560 1561 1562 1562 1563 1563 1564 1564 1564 1563 1563 1563 1565 1565
1511 1516 1520 1523 1526 1529 1532 1534 1536 1539 1542 1544 1545 1547 1549 1550 1551 1552 1553 1554 1555 1556 1557 1558 1558 1559 1559 1560 1561 1561 1562 1562 1563 1564 1564 1564 1565 1566 1565 1565 1565 1566 1566
1513 1517 1520 1523 1527 1530 1533 1535 1537 1540 1543 1545 1546 1548 1549 1551 1552 1553 1554 1555 1556 1557 1557 1558 1559 1560 1560 1561 1561 1562 1562 1562 1563 1564 1564 1564 1565 1566 1566 1566 1566 1566 1566
1514 1518 1520 1524 1527 1530 1533 1536 1538 1541 1543 1545 1547 1549 1550 1551 1552 1553 1554 1555 1556 1557 1557 1558 1559 1560 1560 1560 1561 1562 1562 1563 1563 1564 1564 1567 1566 1566 1566 1566 1566 1566 1566
1516 1519 1521 1524 1528 1531 1534 1537 1539 1541 1543 1545 1547 1548 1550 1551 1552 1553 1554 1554 1555 1556 1557 1558 1558 1559 1560 1560 1560 1561 1561 1562 1563 1564 1564 1566 1565 1565 1566 1566 1566 1566 1566
1518 1518 1522 1525 1528 1531 1534 1537 1539 1541 1543 1545 1547 1548 1549 1550 1551 1552 1553 1554 1555 1556 1557 1558 1558 1559 1559 1560 1560 1560 1560 1560 1561 1562 1563 1564 1563 1563 1564 1564 1565 1565 1565
1519 1519 1523 1525 1528 1531 1533 1536 1538 1540 1542 1544 1546 1548 1549 1550 1550 1551 1552 1553 1554 1555 1556 1557 1558 1558 1559 1559 1559 1559 1559 1559 1559 1560 1561 1561 1560 1560 1561 1561 1562 1563 1563
1520 1519 1523 1525 1527 1530 1532 1534 1536 1539 1541 1543 1545 1547 1548 1549 1549 1550 1551 1552 1553 1554 1555 1556 1557 1557 1558 1557 1557 1556 1557 1557 1557 1557 1558 1559 1558 1558 1558 1558 1558 1559 1560
1520 1519 1522 1524 1527 1528 1530 1533 1535 1537 1539 1541 1543 1545 1546 1547 1548 1548 1549 1550 1551 1552 1553 1554 1555 1555 1555 1555 1555 1554 1554 1554 1554 1555 1555 1556 1556 1556 1556 1555 1555 1555 1556
1519 1520 1521 1523 1525 1528 1530 1532 1534 1536 1538 1540 1541 1543 1544 1545 1546 1546 1547 1548 1549 1550 1550 1551 1551 1552 1552 1552 1552 1552 1552 1551 1551 1552 1553 1553 1553 1553 1553 1553 1552 1552 1552
1518 1520 1522 1523 1524 1527 1530 1532 1533 1535 1536 1538 1539 1541 1542 1543 1543 1545 1545 1546 1546 1547 1547 1547 1548 1548 1548 1548 1548 1549 1550 1549 1549 1550 1551 1550 1550 1550 1550 1549 1548 1548 1549
1518 1519 1521 1522 1522 1525 1529 1530 1531 1533 1534 1535 1536 1538 1539 1540 1541 1542 1543 1543 1543 1544 1544 1544 1545 1545 1545 1545 1546 1547 1547 1548 1548 1548 1548 1546 1546 1547 1546 1545 1545 1545 1545
1516 1518 1519 1520 1521 1523 1526 1528 1529 1531 1532 1533 1533 1535 1536 1536 1537 1539 1540 1540 1540 1541 1540 1541 1541 1541 1542 1542 1544 1545 1545 1545 1545 1545 1545 1543 1543 1543 1543 1542 1541 1541 1541
1515 1517 1518 1518 1519 1521 1523 1525 1527 1528 1530 1530 1530 1531 1531 1532 1532 1534 1535 1535 1536 1538 1538 1538 1538 1538 1538 1539 1540 1540 1540 1540 1540 1541 1541 1540 1540 1540 1539 1538 1538 1537 1537
1513 1516 1517 1516 1517 1519 1520 1522 1523 1525 1526 1526 1526 1526 1526 1527 1528 1529 1530 1530 1531 1533 1534 1534 1533 1533 1532 1533 1534 1535 1534 1535 1536 1537 1537 1537 1537 1536 1535 1535 1534 1533 1533
1511 1513 1515 1515 1516 1517 1518 1519 1520 1521 1522 1522 1522 1522 1522 1522 1523 1523 1524 1524 1525 1528 1529 1530 1530 1530 1528 1527 1527 1528 1529 1530 1530 1531 1532 1532 1532 1531 1530 1530 1530 1529 1529
1511 1512 1513 1515 1515 1515 1515 1515 1516 1516 1517 1517 1518 1519 1520 1519 1520 1519 1519 1518 1520 1521 1523 1523 1524 1525 1524 1523 1522 1521 1522 1523 1524 1525 1526 1526 1526 1526 1525 1525 1525 1525 1525
1510 1511 1512 1513 1513 1513 1513 1513 1513 1513 1513 1513 1514 1514 1515 1515 1515 1515 1514 1514 1515 1515 1516 1517 1518 1519 1519 1519 1518 1517 1516 1515 1515 1518 1519 1520 1520 1521 1521 1520 1519 1519 1519
1509 1510 1510 1511 1511 1511 1511 1511 1510 1510 1509 1509 1509 1510 1511 1511 1511 1510 1510 1510 1510 1510 1510 1511 1512 1513 1513 1514 1515 1514 1512 1509 1507 1509 1511 1512 1514 1515 1515 1515 1514 1513 1514
1509 1509 1509 1509 1509 1508 1507 1507 1506 1505 1505 1504 1505 1505 1505 1505 1506 1505 1505 1505 1505 1505 1506 1506 1505 1506 1507 1508 1509 1508 1507 1505 1501 1501 1503 1506 1508 1509 1510 1510 1510 1508 1508
1509 1508 1508 1507 1507 1506 1505 1503 1502 1501 1500 1500 1499 1499 1499 1499 1499 1499 1498 1499 1499 1499 1500 1501 1500 1499 1500 1501 1502 1503 1502 1500 1496 1495 1497 1500 1502 1504 1505 1505 1505 1505 1504
1507 1507 1506 1505 1503 1502 1501 1499 1496 1495 1493 1493 1492 1492 1492 1492 1491 1491 1491 1491 1491 1491 1492 1493 1494 1494 1493 1494 1495 1497 1496 1493 1491 1490 1493 1496 1498 1499 1499 1500 1500 1499 1498
1506 1505 1504 1502 1500 1498 1496 1494 1492 1490 1488 1487 1486 1484 1483 1483 1482 1482 1482 1482 1483 1483 1484 1486 1486 1487 1487 1488 1489 1489 1490 1489 1488 1487 1490 1492 1493 1492 1493 1493 1493 1493 1493
1504 1503 1501 1499 1497 1495 1492 1490 1488 1485 1483 1481 1479 1477 1476 1475 1474 1474 1474 1474 1475 1476 1477 1479 1480 1481 1482 1482 1483 1484 1484 1484 1484 1486 1487 1488 1488 1488 1488 1488 1487 1487 1488
1500 1499 1498 1496 1494 1491 1488 1485 1482 1480 1477 1474 1472 1470 1469 1468 1467 1467 1467 1468 1469 1470 1471 1473 1474 1476 1477 1478 1479 1479 1480 1480 1481 1483 1484 1484 1483 1484 1484 1483 1482 1482 1483